[Iaude] MPEC N10: 2024 MV1 [a=2.70,e=0.60,i=35.6,H=21.1]
    mpec at cfa.harvard.edu 
    mpec at cfa.harvard.edu
       
    Tue Jul  2 02:28:01 EDT 2024
    
    
  
M.P.E.C. 2024-N10                                  Issued 2024 July 2, 06:26 UT
     The Minor Planet Electronic Circulars contain information on unusual
         minor planets, routine data on comets and natural satellites,
         and occasional editorial announcements.  They are published
    on behalf of Division F of the International Astronomical Union by the
          Minor Planet Center, Smithsonian Astrophysical Observatory,
                          Cambridge, MA 02138, U.S.A.
			  
             Prepared using the Tamkin Foundation Computer Network
                              MPC at CFA.HARVARD.EDU
            URL https://www.minorplanetcenter.net/    ISSN 1523-6714
                                    2024 MV1                                    
Observations:
     K24M01V* C2024 06 29.42074319 53 10.883+59 25 13.98         22.07wXEN010F52
     K24M01V  C2024 06 29.44845119 53 14.670+59 25 23.40         21.64wXEN010F52
     K24M01V  C2024 06 29.46237419 53 16.596+59 25 28.20         21.90wXEN010F52
     K24M01V  C2024 06 29.51590919 53 23.971+59 25 44.50         21.87GVEN010F52
     K24M01V  C2024 06 29.51673619 53 24.089+59 25 44.91         21.64GVEN010F52
     K24M01V KC2024 07 01.20976819 57 49.78 +59 33 20.3          21.7 GVEN010H21
     K24M01V KC2024 07 01.21815819 57 51.01 +59 33 22.9          21.8 GVEN010H21
     K24M01V KC2024 07 02.23483620 00 37.25 +59 37 03.4          21.5 GVEN010H21
     K24M01V KC2024 07 02.23763320 00 37.68 +59 37 03.8          22.2 GVEN010H21
     K24M01V KC2024 07 02.24043020 00 38.17 +59 37 04.3          22.0 GVEN010H21
     K24M01V KC2024 07 02.24853820 00 39.44 +59 37 06.5                VEN010H21
Observer details:
F52 Pan-STARRS 2, Haleakala.  Observers J. Herman, T. Lowe, P. Minguez, A.
    Schultz, I. Smith.  Measurers K. Chambers, T. de Boer, J. Fairlamb, H.
    Gao, M. Huber, C.-C. Lin, E. Magnier, Y. Ramanjooloo, R. Wainscoat, R.
    Weryk.  1.8-m Ritchey-Chretien + CCD.
H21 Astronomical Research Observatory, Westfield.  Observer R. Holmes.
    Measurers T. Linder, R. Holmes, L. Horn.  0.76-m f/3.0 astrograph + CCD.
Orbital elements:
2024 MV1                                                 Earth MOID = 0.0762 AU
Epoch 2024 Mar. 31.0 TT = JDT 2460400.5                 MPC                     
M 332.06906              (2000.0)            P               Q                  
n   0.22211995     Peri.  172.58375     +0.72082705     +0.59496921             
a   2.7002937      Node   142.33470     -0.66205186     +0.74287708             
e   0.5979601      Incl.   35.58282     -0.20517238     -0.30683104             
P   4.44           H   21.17          G   0.15           U   9                  
Residuals in seconds of arc
240629 F52  0.2+  0.1-    240629 F52  0.1-  0.1+    240702 H21  0.2-  0.1-
240629 F52  0.1-  0.1-    240701 H21  0.1+  0.1-    240702 H21  0.2+  0.2-
240629 F52  0.1-  0.1+    240701 H21  0.1-  0.2+    240702 H21  0.3+  0.2+
240629 F52  0.1-  0.1-    240702 H21  0.2-  0.1+
Ephemeris:
2024 MV1                 a,e,i = 2.70, 0.60, 36                  q = 1.0856
Date    TT    R. A. (2000) Decl.     Delta      r    Elong.  Phase     V
2024 06 02    19 02 39.6 +54 06 17   0.7394  1.3338    97.8    48.9    23.0
...
2024 06 17    19 26 54.4 +57 39 47   0.6102  1.2391    96.1    54.6    22.6
...
2024 06 25    19 42 46.1 +58 56 28   0.5358  1.1953    95.7    57.8    22.3
...
2024 07 01    19 57 15.0 +59 32 25   0.4772  1.1664    95.9    60.1    22.0
2024 07 02    19 59 57.4 +59 36 11   0.4672  1.1619    95.9    60.5    22.0
2024 07 03    20 02 45.7 +59 39 13   0.4571  1.1575    96.0    60.9    22.0
...
2024 07 09    20 22 04.4 +59 38 49   0.3956  1.1337    96.8    62.9    21.7
...
2024 07 17    20 56 57.6 +58 22 32   0.3113  1.1089    99.1    64.8    21.2
...
2024 08 01    22 47 31.6 +43 15 54   0.1593  1.0862   112.6    59.6    19.5
A. U. Tomatic                (C) Copyright 2024 MPC           M.P.E.C. 2024-N10
    
    
More information about the Iaude
mailing list